SCP
0 0 1 1 1 1 0 1 1 1 1 0 0 0 0 0 0 0 0 0 0 0 0 0 0 0 0 0 0 0 0 0 0 0 0 0 0 0 0 0 0 0 0
0 0 1 1 0 0 1 1 1 1 1 1 0 0 0 0 0 0 0 0 0 0 0 0 0 0 0 0 0 0 0 0 0 0 0 0 0 0 0 0 0 0 0
0 0 1 1 0 0 1 1 1 1 1 1 0 0 0 0 0 0 0 0 0 0 0 0 0 0 0 0 0 0 0 0 0 0 0 0 0 0 0 0 0 0 0
0 0 0 1 0 0 0 0 0 0 1 0 0 0 0 0 0 0 0 0 0 0 0 0 0 0 0 0 0 0 0 0 0 0 0 0 0 0 0 0 0 0 0
0 0 0 0 0 1 0 0 0 0 0 0 0 0 0 0 0 0 0 0 0 0 0 0 0 0 0 0 0 0 0 0 0 0 0 0 0 0 0 0 0 0 0
0 0 0 0 0 0 0 0 0 0 0 0 0 0 0 0 0 0 0 0 0 0 0 0 0 0 0 0 0 0 0 0 0 0 0 0 0 0 0 0 0 0 0
0 0 0 0 0 0 0 0 0 0 0 0 0 0 0 0 0 0 0 0 0 0 0 0 0 0 0 0 0 0 0 0 0 0 0 0 0 0 0 0 0 0 0
0 0 0 0 0 0 0 0 0 0 0 0 0 0 0 0 0 0 0 0 0 0 0 0 0 0 0 0 0 0 0 0 0 0 0 0 0 0 0 0 0 0 0
0 0 0 0 0 0 0 0 0 0 0 0 0 -0 0 0 0 0 0 0 0 0 0 0 0 0 0 0 0 0 0 0 0 0 0 0 0 0 0 0 0 0 0
0 0 0 0 0 0 0 0 0 0 0 0 0 0 0 0 0 0 0 0 0 0 0 0 0 0 0 0 0 0 0 0 0 0 0 0 0 0 0 0 0 0 0
0 0 0 0 0 0 0 0 0 0 0 0 0 0 0 0 0 0 0 0 0 0 0 0 0 0 0 0 0 0 0 0 0 0 0 0 0 0 0 0 0 0 0
0 0 0 0 0 0 0 0 0 0 0 0 0 0 0 0 0 0 0 0 0 0 0 0 0 0 0 0 0 0 0 0 0 0 0 0 0 0 0 0 0 0 0
0 0 0 0 0 0 0 0 0 0 0 0 0 0 0 0 0 0 0 0 0 0 0 0 0 0 0 0 0 0 0 0 0 0 0 0 0 0 0 0 0 0 0
0 0 0 0 0 0 0 0 0 0 0 0 0 0 0 0 0 0 0 0 0 0 0 0 0 0 0 0 0 0 0 0 0 0 0 0 0 0 0 0 0 0 0
0 0 0 0 0 0 0 0 0 0 0 0 0 0 0 0 0 0 0 0 0 0 0 0 0 0 0 0 0 0 0 0 0 0 0 0 0 0 0 0 0 0 0
0 0 0 0 0 0 0 0 0 0 0 0 0 0 0 0 0 0 0 0 0 0 0 0 0 0 0 0 0 0 0 0 0 0 0 0 0 0 0 0 0 0 0
0 0 0 0 0 0 0 0 0 0 0 0 0 0 0 0 0 0 0 0 0 0 0 0 0 0 0 0 0 0 0 0 0 0 0 0 0 0 0 0 0 0 0
0 0 0 0 0 0 0 0 0 0 0 0 0 0 0 0 0 0 0 0 0 0 0 0 0 0 0 0 0 0 0 0 0 0 0 0 0 0 0 0 0 0 0
0 0 0 0 0 0 0 0 0 0 0 0 0 0 0 0 0 0 0 0 0 0 0 0 0 0 0 0 0 0 0 0 0 0 0 0 0 0 0 0 0 0 0
0 0 0 0 0 0 0 0 0 0 0 0 0 0 0 0 0 0 0 0 0 0 0 0 0 0 0 0 0 0 0 0 0 0 0 0 0 0 0 0 0 0 0
0 0 0 0 0 0 0 0 0 0 0 0 0 0 0 0 0 0 0 0 0 0 0 0 0 0 0 0 -0 -0 0 0 0 0 0 0 0 0 0 0 0 0 0
0 0 0 0 0 0 0 0 0 0 0 0 0 0 0 0 0 0 0 0 0 0 0 0 0 0 0 -0 -0 -0 0 0 0 0 0 0 0 0 0 0 0 0 0
0 0 0 0 0 0 0 0 0 0 0 0 0 0 0 0 0 0 0 0 0 0 0 0 0 0 0 0 0 0 0 0 0 0 0 0 0 0 0 0 0 0 0
0 0 0 0 0 0 0 0 0 0 0 0 0 0 0 0 0 0 0 0 0 0 0 0 0 0 0 0 0 0 0 0 0 0 0 0 0 0 0 0 0 0 0
0 0 0 0 0 0 0 0 0 0 0 0 0 0 0 0 0 0 0 0 0 0 0 0 0 0 0 0 0 0 0 0 0 0 0 0 0 0 0 0 0 0 0
0 0 0 0 0 0 0 0 0 0 0 0 0 0 0 0 0 0 0 0 0 0 0 0 0 0 0 0 0 0 0 0 0 0 0 0 0 0 0 0 0 0 0
Wind_Speed_500mb
46 75 78 74 96 101 84 83 84 89 85 77 72 67 63 60 52 52 51 52 48 44 39 34 36 34 28 22 19 19 16 13 12 14 14 15 21 24 25 27 28 28 27
26 66 79 82 80 92 80 80 76 79 82 77 72 67 63 60 52 51 50 46 42 39 35 32 31 28 25 24 22 21 19 14 11 12 16 11 11 18 22 24 27 31 33
25 47 68 75 66 58 66 70 67 69 75 77 77 72 62 57 59 55 49 46 44 42 36 29 29 28 27 25 25 24 21 15 11 20 23 12 13 18 18 25 30 31 27
32 37 70 74 73 79 51 66 70 68 70 78 81 76 71 68 66 60 55 48 45 39 34 33 32 31 24 25 26 28 22 21 30 36 31 38 41 28 20 34 34 30 18
37 30 50 63 63 75 74 66 46 54 89 49 80 76 64 63 60 54 41 43 34 28 32 34 32 31 29 14 14 22 33 35 29 26 25 29 36 37 41 19 17 23 29
36 32 31 45 55 59 59 45 44 43 77 104 71 67 56 54 54 55 46 37 41 42 43 44 39 31 32 27 27 30 28 29 37 36 29 16 21 22 19 23 27 31 35
27 30 23 24 42 62 54 52 52 57 63 40 92 65 74 72 73 63 54 62 53 51 38 34 35 30 25 18 14 18 19 14 16 18 12 20 22 27 27 26 36 42 42
25 28 26 27 32 41 47 47 49 37 39 48 52 25 65 36 55 49 48 52 47 43 39 37 32 25 22 16 13 10 10 13 14 17 25 23 27 27 29 33 38 39 42
22 29 27 17 28 37 38 31 31 33 31 27 26 31 46 48 49 41 37 30 30 35 37 36 31 21 19 16 12 10 12 14 19 22 23 29 31 31 32 36 35 35 39
18 19 28 14 8 27 36 35 32 32 33 31 33 35 38 39 35 36 38 38 40 35 35 33 24 23 19 13 10 12 14 16 20 26 28 27 27 28 29 31 33 36 34
22 15 21 12 5 19 34 35 34 35 33 33 32 32 31 30 31 31 33 33 31 29 33 25 20 16 11 7 8 7 10 14 16 21 24 26 27 28 28 29 31 31 31
19 14 14 10 2 10 28 31 30 29 29 28 24 22 21 25 25 30 33 32 26 28 26 16 17 15 11 10 10 10 14 18 19 21 23 25 26 26 27 29 31 32 27
16 13 25 17 17 10 18 29 31 29 29 27 25 24 23 26 29 30 31 28 28 26 20 20 22 17 15 15 13 13 16 18 18 18 20 24 28 30 31 33 34 31 26
38 30 10 23 30 25 22 27 31 29 25 25 28 24 24 27 26 25 25 25 27 24 22 24 23 17 15 14 12 12 15 15 18 20 23 26 30 33 35 37 36 34 31
44 38 32 16 9 15 23 26 27 27 28 29 29 26 24 22 22 23 23 25 25 24 23 21 19 17 15 14 12 12 16 16 20 23 28 31 35 38 40 41 39 37 36
38 34 29 27 14 8 12 19 23 23 24 26 26 26 25 24 24 25 25 25 26 26 25 22 21 18 15 11 12 13 18 22 26 27 31 34 35 35 36 36 41 40 35
30 28 26 19 16 10 14 17 21 23 25 26 25 24 25 25 26 27 28 29 28 26 23 24 20 14 13 13 15 17 22 26 30 30 33 34 34 34 32 35 43 32 35
23 21 19 12 5 3 8 15 19 22 24 26 26 27 26 25 26 28 29 27 25 25 22 19 13 15 16 14 16 18 24 29 33 33 31 31 33 34 33 28 23 30 32
23 21 19 16 7 1 5 9 13 18 21 24 26 26 27 28 31 31 28 26 24 22 22 19 17 14 12 13 17 23 29 33 31 28 29 31 29 29 32 25 20 23 28
20 19 12 10 6 5 5 3 7 11 13 15 17 20 22 24 24 26 26 25 25 23 21 19 15 11 10 14 20 27 33 32 31 27 25 27 29 24 23 26 21 20 22
19 20 11 3 11 10 7 7 6 8 11 14 16 19 22 23 25 26 25 24 23 24 23 20 15 12 11 15 23 27 29 28 31 29 28 27 26 23 21 26 23 23 22
18 21 16 6 7 11 10 8 8 8 9 13 14 16 18 23 23 22 24 26 26 25 25 21 21 20 16 16 22 25 30 31 33 31 28 30 30 25 22 24 24 26 22
19 16 16 12 6 9 13 11 10 10 11 12 15 19 21 22 23 24 25 26 27 28 29 28 26 26 25 22 22 30 33 35 33 32 30 31 33 25 22 21 18 21 20
11 15 14 10 10 7 4 8 13 14 15 15 17 19 20 23 24 25 27 29 31 32 30 27 29 27 25 25 23 26 23 29 34 34 33 33 32 25 22 20 22 22 22
9 10 10 11 9 7 3 2 5 9 11 16 18 19 21 24 26 28 28 30 30 31 31 32 30 24 22 23 24 23 25 28 31 34 32 33 32 29 27 24 24 24 25
7 8 8 7 6 6 6 6 6 7 10 12 13 16 20 22 24 32 31 30 31 32 34 33 30 27 24 29 33 32 34 35 27 33 34 32 31 28 26 25 25 24 24
Wind_Direction_500mb
226 207 202 206 192 191 193 195 196 201 200 199 197 196 193 192 194 199 198 194 195 194 199 203 206 211 215 220 223 230 237 253 268 289 305 306 290 275 263 262 262 258 259
220 205 202 198 206 206 202 198 201 207 205 200 200 201 194 196 196 191 192 195 196 200 203 205 209 218 225 229 233 236 243 251 267 280 287 282 293 291 273 262 259 257 257
192 191 197 204 208 201 202 215 209 206 209 202 204 204 203 202 198 197 195 196 194 197 201 204 211 215 219 220 228 230 233 240 245 274 267 264 257 270 241 270 279 279 257
157 176 182 186 201 211 224 217 204 205 215 213 211 206 202 203 201 198 200 203 209 205 201 205 212 217 218 220 229 226 223 220 250 291 283 268 265 277 281 277 268 252 236
132 155 176 184 187 190 206 213 207 217 226 215 222 214 207 207 205 204 203 211 210 234 216 245 226 226 228 334 298 231 238 252 265 270 274 273 287 280 266 268 292 294 287
127 130 152 178 194 203 210 201 195 190 204 227 207 223 212 199 210 206 195 216 228 243 226 239 232 256 234 278 248 241 240 263 266 257 272 265 286 283 280 282 302 312 303
116 101 122 179 207 214 206 196 197 191 199 211 231 245 215 232 227 216 216 232 234 238 225 242 240 238 234 229 204 219 229 243 250 253 233 290 285 288 280 278 290 301 295
95 94 95 139 168 174 192 196 194 184 182 208 228 183 204 250 232 220 218 215 218 226 216 221 217 198 179 180 193 213 222 225 235 248 279 278 286 279 270 274 280 287 286
47 59 57 83 166 169 169 165 161 173 181 178 155 179 174 191 194 194 204 206 195 185 169 165 167 177 180 179 190 211 229 241 252 260 266 280 285 280 277 276 272 273 280
27 6 22 22 111 176 174 169 166 165 169 174 178 180 183 187 184 181 179 174 168 166 164 164 173 177 178 185 216 237 253 263 270 277 282 285 283 283 284 281 280 273 268
348 333 4 337 34 150 169 176 167 163 165 171 177 177 175 171 172 169 162 169 169 169 169 174 181 186 193 212 248 270 279 272 274 279 283 281 286 288 289 286 288 284 272
264 288 323 297 242 140 164 180 177 170 168 173 172 170 176 174 173 170 171 178 184 178 182 200 195 200 217 219 229 247 270 279 279 283 290 298 300 301 299 297 295 288 272
107 151 214 248 256 197 180 178 182 180 182 184 179 178 184 186 179 184 184 191 190 187 214 225 217 212 207 224 239 258 261 264 272 281 290 299 302 303 302 300 297 293 279
66 63 109 186 203 210 194 189 187 193 201 193 186 185 189 192 193 187 190 195 203 217 227 212 206 207 221 244 255 268 265 276 282 290 293 297 299 301 301 300 297 289 277
48 50 45 63 152 195 190 190 191 198 197 194 190 188 184 185 189 196 207 215 221 217 208 207 214 226 234 239 247 255 266 278 286 290 293 295 295 296 295 296 294 286 277
39 41 46 49 66 138 177 192 191 194 191 187 186 188 190 193 200 205 209 213 210 202 208 216 217 214 224 228 250 274 283 287 283 285 291 293 293 289 293 298 293 282 274
26 33 35 42 57 98 150 171 179 187 190 191 187 185 186 188 195 197 196 197 202 210 214 209 204 215 239 248 262 275 282 284 289 295 298 298 293 288 293 307 322 281 265
3 8 23 29 56 121 138 152 167 178 190 192 196 197 197 198 202 201 203 206 208 205 208 213 216 227 241 257 274 289 294 300 303 305 304 299 294 289 292 298 307 298 283
352 343 341 346 333 286 217 211 203 198 202 205 204 202 202 206 210 210 207 203 200 203 209 213 216 228 257 285 306 313 315 310 305 304 304 303 300 295 299 293 288 288 285
350 347 321 312 268 253 257 243 218 215 216 212 204 197 195 193 193 194 194 194 195 202 211 217 226 241 274 302 322 325 312 309 309 312 312 312 310 303 299 295 284 282 284
4 360 2 199 183 190 183 192 193 176 185 192 190 188 189 192 195 199 198 198 205 212 219 225 234 256 274 310 326 327 323 324 324 325 322 318 311 296 289 289 288 280 277
22 24 28 49 156 169 177 178 182 196 201 206 201 207 211 211 210 207 211 211 215 222 230 239 246 251 270 299 309 322 321 314 325 328 317 315 309 297 287 278 282 279 282
27 31 47 58 115 175 195 194 195 203 215 217 214 211 213 218 222 220 225 227 232 238 240 241 248 265 269 269 289 303 303 302 305 301 303 301 302 299 285 276 269 272 279
23 31 29 45 70 87 169 211 224 228 229 232 235 231 234 237 239 239 239 237 240 245 250 255 265 273 282 288 287 287 297 311 304 294 290 290 293 291 280 273 274 275 279
22 26 17 16 29 59 55 262 258 256 250 248 244 243 241 240 242 242 243 249 253 253 252 253 259 264 274 283 292 291 291 299 301 290 284 289 287 280 273 272 271 273 280
348 359 359 357 350 346 347 326 301 282 272 267 265 258 247 249 248 251 248 246 247 248 253 259 268 268 269 281 285 281 291 296 295 286 290 283 280 273 267 270 272 273 280
Wind_Speed_850mb
46 75 78 74 96 101 84 83 84 89 85 77 72 67 63 60 52 52 51 52 48 44 39 34 36 34 28 22 19 19 16 13 12 14 14 15 21 24 25 27 28 28 27
26 66 79 82 80 92 80 80 76 79 82 77 72 67 63 60 52 51 50 46 42 39 35 32 31 28 25 24 22 21 19 14 11 12 16 11 11 18 22 24 27 31 33
25 47 68 75 66 58 66 70 67 69 75 77 77 72 62 57 59 55 49 46 44 42 36 29 29 28 27 25 25 24 21 15 11 20 23 12 13 18 18 25 30 31 27
32 37 70 74 73 79 51 66 70 68 70 78 81 76 71 68 66 60 55 48 45 39 34 33 32 31 24 25 26 28 22 21 30 36 31 38 41 28 20 34 34 30 18
37 30 50 63 63 75 74 66 46 54 89 49 80 76 64 63 60 54 41 43 34 28 32 34 32 31 29 14 14 22 33 35 29 26 25 29 36 37 41 19 17 23 29
36 32 31 45 55 59 59 45 44 43 77 104 71 67 56 54 54 55 46 37 41 42 43 44 39 31 32 27 27 30 28 29 37 36 29 16 21 22 19 23 27 31 35
27 30 23 24 42 62 54 52 52 57 63 40 92 65 74 72 73 63 54 62 53 51 38 34 35 30 25 18 14 18 19 14 16 18 12 20 22 27 27 26 36 42 42
25 28 26 27 32 41 47 47 49 37 39 48 52 25 65 36 55 49 48 52 47 43 39 37 32 25 22 16 13 10 10 13 14 17 25 23 27 27 29 33 38 39 42
22 29 27 17 28 37 38 31 31 33 31 27 26 31 46 48 49 41 37 30 30 35 37 36 31 21 19 16 12 10 12 14 19 22 23 29 31 31 32 36 35 35 39
18 19 28 14 8 27 36 35 32 32 33 31 33 35 38 39 35 36 38 38 40 35 35 33 24 23 19 13 10 12 14 16 20 26 28 27 27 28 29 31 33 36 34
22 15 21 12 5 19 34 35 34 35 33 33 32 32 31 30 31 31 33 33 31 29 33 25 20 16 11 7 8 7 10 14 16 21 24 26 27 28 28 29 31 31 31
19 14 14 10 2 10 28 31 30 29 29 28 24 22 21 25 25 30 33 32 26 28 26 16 17 15 11 10 10 10 14 18 19 21 23 25 26 26 27 29 31 32 27
16 13 25 17 17 10 18 29 31 29 29 27 25 24 23 26 29 30 31 28 28 26 20 20 22 17 15 15 13 13 16 18 18 18 20 24 28 30 31 33 34 31 26
38 30 10 23 30 25 22 27 31 29 25 25 28 24 24 27 26 25 25 25 27 24 22 24 23 17 15 14 12 12 15 15 18 20 23 26 30 33 35 37 36 34 31
44 38 32 16 9 15 23 26 27 27 28 29 29 26 24 22 22 23 23 25 25 24 23 21 19 17 15 14 12 12 16 16 20 23 28 31 35 38 40 41 39 37 36
38 34 29 27 14 8 12 19 23 23 24 26 26 26 25 24 24 25 25 25 26 26 25 22 21 18 15 11 12 13 18 22 26 27 31 34 35 35 36 36 41 40 35
30 28 26 19 16 10 14 17 21 23 25 26 25 24 25 25 26 27 28 29 28 26 23 24 20 14 13 13 15 17 22 26 30 30 33 34 34 34 32 35 43 32 35
23 21 19 12 5 3 8 15 19 22 24 26 26 27 26 25 26 28 29 27 25 25 22 19 13 15 16 14 16 18 24 29 33 33 31 31 33 34 33 28 23 30 32
23 21 19 16 7 1 5 9 13 18 21 24 26 26 27 28 31 31 28 26 24 22 22 19 17 14 12 13 17 23 29 33 31 28 29 31 29 29 32 25 20 23 28
20 19 12 10 6 5 5 3 7 11 13 15 17 20 22 24 24 26 26 25 25 23 21 19 15 11 10 14 20 27 33 32 31 27 25 27 29 24 23 26 21 20 22
19 20 11 3 11 10 7 7 6 8 11 14 16 19 22 23 25 26 25 24 23 24 23 20 15 12 11 15 23 27 29 28 31 29 28 27 26 23 21 26 23 23 22
18 21 16 6 7 11 10 8 8 8 9 13 14 16 18 23 23 22 24 26 26 25 25 21 21 20 16 16 22 25 30 31 33 31 28 30 30 25 22 24 24 26 22
19 16 16 12 6 9 13 11 10 10 11 12 15 19 21 22 23 24 25 26 27 28 29 28 26 26 25 22 22 30 33 35 33 32 30 31 33 25 22 21 18 21 20
11 15 14 10 10 7 4 8 13 14 15 15 17 19 20 23 24 25 27 29 31 32 30 27 29 27 25 25 23 26 23 29 34 34 33 33 32 25 22 20 22 22 22
9 10 10 11 9 7 3 2 5 9 11 16 18 19 21 24 26 28 28 30 30 31 31 32 30 24 22 23 24 23 25 28 31 34 32 33 32 29 27 24 24 24 25
7 8 8 7 6 6 6 6 6 7 10 12 13 16 20 22 24 32 31 30 31 32 34 33 30 27 24 29 33 32 34 35 27 33 34 32 31 28 26 25 25 24 24
Wind_Direction_850mb
226 207 202 206 192 191 193 195 196 201 200 199 197 196 193 192 194 199 198 194 195 194 199 203 206 211 215 220 223 230 237 253 268 289 305 306 290 275 263 262 262 258 259
220 205 202 198 206 206 202 198 201 207 205 200 200 201 194 196 196 191 192 195 196 200 203 205 209 218 225 229 233 236 243 251 267 280 287 282 293 291 273 262 259 257 257
192 191 197 204 208 201 202 215 209 206 209 202 204 204 203 202 198 197 195 196 194 197 201 204 211 215 219 220 228 230 233 240 245 274 267 264 257 270 241 270 279 279 257
157 176 182 186 201 211 224 217 204 205 215 213 211 206 202 203 201 198 200 203 209 205 201 205 212 217 218 220 229 226 223 220 250 291 283 268 265 277 281 277 268 252 236
132 155 176 184 187 190 206 213 207 217 226 215 222 214 207 207 205 204 203 211 210 234 216 245 226 226 228 334 298 231 238 252 265 270 274 273 287 280 266 268 292 294 287
127 130 152 178 194 203 210 201 195 190 204 227 207 223 212 199 210 206 195 216 228 243 226 239 232 256 234 278 248 241 240 263 266 257 272 265 286 283 280 282 302 312 303
116 101 122 179 207 214 206 196 197 191 199 211 231 245 215 232 227 216 216 232 234 238 225 242 240 238 234 229 204 219 229 243 250 253 233 290 285 288 280 278 290 301 295
95 94 95 139 168 174 192 196 194 184 182 208 228 183 204 250 232 220 218 215 218 226 216 221 217 198 179 180 193 213 222 225 235 248 279 278 286 279 270 274 280 287 286
47 59 57 83 166 169 169 165 161 173 181 178 155 179 174 191 194 194 204 206 195 185 169 165 167 177 180 179 190 211 229 241 252 260 266 280 285 280 277 276 272 273 280
27 6 22 22 111 176 174 169 166 165 169 174 178 180 183 187 184 181 179 174 168 166 164 164 173 177 178 185 216 237 253 263 270 277 282 285 283 283 284 281 280 273 268
348 333 4 337 34 150 169 176 167 163 165 171 177 177 175 171 172 169 162 169 169 169 169 174 181 186 193 212 248 270 279 272 274 279 283 281 286 288 289 286 288 284 272
264 288 323 297 242 140 164 180 177 170 168 173 172 170 176 174 173 170 171 178 184 178 182 200 195 200 217 219 229 247 270 279 279 283 290 298 300 301 299 297 295 288 272
107 151 214 248 256 197 180 178 182 180 182 184 179 178 184 186 179 184 184 191 190 187 214 225 217 212 207 224 239 258 261 264 272 281 290 299 302 303 302 300 297 293 279
66 63 109 186 203 210 194 189 187 193 201 193 186 185 189 192 193 187 190 195 203 217 227 212 206 207 221 244 255 268 265 276 282 290 293 297 299 301 301 300 297 289 277
48 50 45 63 152 195 190 190 191 198 197 194 190 188 184 185 189 196 207 215 221 217 208 207 214 226 234 239 247 255 266 278 286 290 293 295 295 296 295 296 294 286 277
39 41 46 49 66 138 177 192 191 194 191 187 186 188 190 193 200 205 209 213 210 202 208 216 217 214 224 228 250 274 283 287 283 285 291 293 293 289 293 298 293 282 274
26 33 35 42 57 98 150 171 179 187 190 191 187 185 186 188 195 197 196 197 202 210 214 209 204 215 239 248 262 275 282 284 289 295 298 298 293 288 293 307 322 281 265
3 8 23 29 56 121 138 152 167 178 190 192 196 197 197 198 202 201 203 206 208 205 208 213 216 227 241 257 274 289 294 300 303 305 304 299 294 289 292 298 307 298 283
352 343 341 346 333 286 217 211 203 198 202 205 204 202 202 206 210 210 207 203 200 203 209 213 216 228 257 285 306 313 315 310 305 304 304 303 300 295 299 293 288 288 285
350 347 321 312 268 253 257 243 218 215 216 212 204 197 195 193 193 194 194 194 195 202 211 217 226 241 274 302 322 325 312 309 309 312 312 312 310 303 299 295 284 282 284
4 360 2 199 183 190 183 192 193 176 185 192 190 188 189 192 195 199 198 198 205 212 219 225 234 256 274 310 326 327 323 324 324 325 322 318 311 296 289 289 288 280 277
22 24 28 49 156 169 177 178 182 196 201 206 201 207 211 211 210 207 211 211 215 222 230 239 246 251 270 299 309 322 321 314 325 328 317 315 309 297 287 278 282 279 282
27 31 47 58 115 175 195 194 195 203 215 217 214 211 213 218 222 220 225 227 232 238 240 241 248 265 269 269 289 303 303 302 305 301 303 301 302 299 285 276 269 272 279
23 31 29 45 70 87 169 211 224 228 229 232 235 231 234 237 239 239 239 237 240 245 250 255 265 273 282 288 287 287 297 311 304 294 290 290 293 291 280 273 274 275 279
22 26 17 16 29 59 55 262 258 256 250 248 244 243 241 240 242 242 243 249 253 253 252 253 259 264 274 283 292 291 291 299 301 290 284 289 287 280 273 272 271 273 280
348 359 359 357 350 346 347 326 301 282 272 267 265 258 247 249 248 251 248 246 247 248 253 259 268 268 269 281 285 281 291 296 295 286 290 283 280 273 267 270 272 273 280